| time (UTC) | temp C | wind direction | speed KPH | gust KPH | rain 1hr cm | rain 24hr cm | rain mn cm | humidity % | barometer mb |
| 20260901110042 | 11 | 57 | 8.0 | 12.9 | 0.00 | 0.00 | 0.00 | 67 | 1013.9 |
| 20260901104538 | 12 | 73 | 8.0 | 11.3 | 0.00 | 0.00 | 0.00 | 63 | 1013.8 |
| 20260901103039 | 12 | 97 | 6.4 | 9.7 | 0.00 | 0.00 | 0.00 | 64 | 1014.0 |
| 20260901101537 | 12 | 96 | 4.8 | 12.9 | 0.00 | 0.00 | 0.00 | 63 | 1014.0 |
| 20260901100039 | 12 | 83 | 6.4 | 11.3 | 0.00 | 0.00 | 0.00 | 64 | 1014.1 |
| 20260901094539 | 12 | 90 | 6.4 | 11.3 | 0.00 | 0.00 | 0.00 | 64 | 1014.1 |
| 20260901093039 | 12 | 115 | 6.4 | 11.3 | 0.00 | 0.00 | 0.00 | 63 | 1014.1 |
| 20260901091538 | 13 | 117 | 6.4 | 11.3 | 0.00 | 0.00 | 0.00 | 61 | 1014.0 |
| 20260901090039 | 13 | 134 | 6.4 | 11.3 | 0.00 | 0.00 | 0.00 | 62 | 1014.1 |
| 20260901084539 | 13 | 132 | 4.8 | 8.0 | 0.00 | 0.00 | 0.00 | 61 | 1014.1 |
| 20260901083039 | 13 | 150 | 3.2 | 4.8 | 0.00 | 0.00 | 0.00 | 61 | 1014.1 |
| 20260901081537 | 13 | 157 | 1.6 | 4.8 | 0.00 | 0.00 | 0.00 | 60 | 1014.3 |
| 20260901080036 | 13 | 155 | 6.4 | 8.0 | 0.00 | 0.00 | 0.00 | 60 | 1014.4 |
| 20260901074535 | 13 | 146 | 4.8 | 8.0 | 0.00 | 0.00 | 0.00 | 58 | 1014.4 |
| 20260901073037 | 13 | 126 | 4.8 | 9.7 | 0.00 | 0.00 | 0.00 | 59 | 1014.5 |
| 20260901071536 | 13 | 109 | 3.2 | 6.4 | 0.00 | 0.00 | 0.00 | 60 | 1014.5 |
| 20260901070036 | 14 | 128 | 9.7 | 12.9 | 0.00 | 0.00 | 0.00 | 56 | 1014.4 |
| 20260901064534 | 14 | 130 | 9.7 | 12.9 | 0.00 | 0.00 | 0.00 | 56 | 1014.5 |
| 20260901063038 | 13 | 86 | 3.2 | 11.3 | 0.00 | 0.00 | 0.00 | 57 | 1014.5 |
| 20260901061536 | 13 | 142 | 6.4 | 11.3 | 0.00 | 0.00 | 0.00 | 56 | 1014.7 |
| 20260901060035 | 14 | 146 | 8.0 | 14.5 | 0.00 | 0.00 | 0.00 | 54 | 1014.5 |
| 20260901054538 | 14 | 159 | 9.7 | 14.5 | 0.00 | 0.00 | 0.00 | 54 | 1014.8 |
| 20260901053052 | 14 | 132 | 4.8 | 8.0 | 0.00 | 0.00 | 0.00 | 53 | 1014.9 |
| 20260901051548 | 15 | 148 | 6.4 | 9.7 | 0.00 | 0.00 | 0.00 | 51 | 1014.9 |
| 20260901050036 | 15 | 136 | 6.4 | 9.7 | 0.00 | 0.00 | 0.00 | 51 | 1015.0 |
| 20260901044551 | 15 | 103 | 4.8 | 6.4 | 0.00 | 0.00 | 0.00 | 50 | 1015.0 |
| 20260901043036 | 16 | 118 | 8.0 | 11.3 | 0.00 | 0.00 | 0.00 | 50 | 1014.9 |
| 20260901041535 | 15 | 118 | 6.4 | 9.7 | 0.00 | 0.00 | 0.00 | 51 | 1015.0 |
| 20260901040058 | 16 | 120 | 8.0 | 12.9 | 0.00 | 0.00 | 0.00 | 48 | 1014.9 |
| 20260901034537 | 16 | 132 | 11.3 | 12.9 | 0.00 | 0.00 | 0.00 | 48 | 1014.8 |
| 20260901033037 | 17 | 126 | 11.3 | 12.9 | 0.00 | 0.00 | 0.00 | 46 | 1014.6 |
| 20260901031535 | 17 | 113 | 9.7 | 11.3 | 0.00 | 0.00 | 0.00 | 45 | 1014.5 |
| 20260901030036 | 18 | 118 | 6.4 | 11.3 | 0.00 | 0.00 | 0.00 | 43 | 1014.4 |
| 20260901024535 | 18 | 95 | 4.8 | 8.0 | 0.00 | 0.00 | 0.00 | 43 | 1014.5 |
| 20260901023051 | 20 | 141 | 4.8 | 8.0 | 0.00 | 0.00 | 0.00 | 38 | 1014.4 |
| 20260901021537 | 21 | 150 | 4.8 | 9.7 | 0.00 | 0.00 | 0.00 | 37 | 1014.4 |
| 20260901020043 | 21 | 151 | 6.4 | 9.7 | 0.00 | 0.00 | 0.00 | 38 | 1014.5 |
| 20260901014550 | 21 | 157 | 6.4 | 8.0 | 0.00 | 0.00 | 0.00 | 37 | 1014.4 |
| 20260901013036 | 22 | 183 | 6.4 | 12.9 | 0.00 | 0.00 | 0.00 | 36 | 1014.4 |
| 20260901011539 | 22 | 205 | 9.7 | 14.5 | 0.00 | 0.00 | 0.00 | 36 | 1014.4 |
| 20260901010036 | 22 | 186 | 11.3 | 16.1 | 0.00 | 0.00 | 0.00 | 35 | 1014.5 |
| 20260901004543 | 22 | 200 | 12.9 | 22.5 | 0.00 | 0.00 | 0.00 | 35 | 1014.6 |
| 20260901003037 | 22 | 197 | 12.9 | 20.9 | 0.00 | 0.00 | 0.00 | 36 | 1014.7 |
| 20260901001536 | 22 | 202 | 11.3 | 27.4 | 0.00 | 0.00 | 0.00 | 36 | 1014.7 |
| 20260901000039 | 22 | 165 | 11.3 | 22.5 | 0.00 | 0.00 | 0.00 | 36 | 1014.6 |
| 20260831234537 | 22 | 209 | 11.3 | 24.1 | 0.00 | 0.00 | 0.00 | 36 | 1014.8 |
| 20260831233035 | 23 | 234 | 9.7 | 19.3 | 0.00 | 0.00 | 0.00 | 37 | 1014.8 |
| 20260831231538 | 22 | 69 | 4.8 | 14.5 | 0.00 | 0.00 | 0.00 | 37 | 1014.8 |
| 20260831230041 | 22 | 144 | 17.7 | 29.0 | 0.00 | 0.00 | 0.00 | 38 | 1014.9 |
| 20260831224538 | 22 | 215 | 14.5 | 24.1 | 0.00 | 0.00 | 0.00 | 38 | 1014.9 |
| 20260831223036 | 22 | 235 | 16.1 | 22.5 | 0.00 | 0.00 | 0.00 | 38 | 1015.0 |
| 20260831221536 | 22 | 212 | 4.8 | 16.1 | 0.00 | 0.00 | 0.00 | 38 | 1015.2 |
| 20260831220038 | 22 | 277 | 9.7 | 20.9 | 0.00 | 0.00 | 0.00 | 39 | 1015.1 |
| 20260831214539 | 22 | 298 | 14.5 | 24.1 | 0.00 | 0.00 | 0.00 | 39 | 1015.2 |
| 20260831213034 | 21 | 233 | 16.1 | 24.1 | 0.00 | 0.00 | 0.00 | 40 | 1015.4 |
| 20260831211536 | 21 | 304 | 16.1 | 27.4 | 0.00 | 0.00 | 0.00 | 39 | 1015.4 |
| 20260831210037 | 21 | 253 | 14.5 | 30.6 | 0.00 | 0.00 | 0.00 | 40 | 1015.4 |
| 20260831204549 | 21 | 323 | 16.1 | 29.0 | 0.00 | 0.00 | 0.00 | 40 | 1015.5 |
| 20260831203037 | 21 | 205 | 4.8 | 19.3 | 0.00 | 0.00 | 0.00 | 41 | 1015.7 |
| 20260831201536 | 21 | 272 | 17.7 | 25.7 | 0.00 | 0.00 | 0.00 | 41 | 1015.8 |
| 20260831200044 | 20 | 298 | 19.3 | 33.8 | 0.00 | 0.00 | 0.00 | 42 | 1015.7 |
| 20260831194540 | 20 | 276 | 17.7 | 25.7 | 0.00 | 0.00 | 0.00 | 42 | 1015.9 |
| 20260831193040 | 20 | 248 | 17.7 | 29.0 | 0.00 | 0.00 | 0.00 | 45 | 1016.0 |
| 20260831191537 | 20 | 267 | 14.5 | 19.3 | 0.00 | 0.00 | 0.00 | 45 | 1016.3 |
| 20260831190048 | 20 | 290 | 11.3 | 27.4 | 0.00 | 0.00 | 0.00 | 44 | 1016.5 |
| 20260831184536 | 20 | 220 | 14.5 | 30.6 | 0.00 | 0.00 | 0.00 | 45 | 1016.6 |
| 20260831183038 | 19 | 344 | 14.5 | 24.1 | 0.00 | 0.00 | 0.00 | 46 | 1016.5 |
| 20260831181535 | 19 | 305 | 17.7 | 35.4 | 0.00 | 0.00 | 0.00 | 46 | 1016.5 |
| 20260831180044 | 19 | 285 | 20.9 | 29.0 | 0.00 | 0.00 | 0.00 | 45 | 1016.6 |
| 20260831174543 | 19 | 282 | 12.9 | 27.4 | 0.00 | 0.00 | 0.00 | 48 | 1016.6 |
| 20260831173039 | 18 | 291 | 16.1 | 25.7 | 0.00 | 0.00 | 0.00 | 49 | 1016.7 |
| 20260831171537 | 18 | 288 | 14.5 | 30.6 | 0.00 | 0.00 | 0.00 | 48 | 1016.5 |
| 20260831170037 | 18 | 315 | 14.5 | 32.2 | 0.00 | 0.00 | 0.00 | 51 | 1016.6 |
| 20260831164553 | 18 | 5 | 19.3 | 32.2 | 0.00 | 0.00 | 0.00 | 52 | 1016.6 |
| 20260831163041 | 17 | 321 | 17.7 | 35.4 | 0.00 | 0.00 | 0.00 | 54 | 1016.5 |
| 20260831161535 | 17 | 292 | 16.1 | 32.2 | 0.00 | 0.00 | 0.00 | 54 | 1016.4 |
| 20260831160043 | 17 | 306 | 17.7 | 33.8 | 0.00 | 0.00 | 0.00 | 54 | 1016.3 |
| 20260831154604 | 16 | 284 | 17.7 | 30.6 | 0.00 | 0.00 | 0.00 | 54 | 1016.3 |
| 20260831153036 | 16 | 294 | 22.5 | 32.2 | 0.00 | 0.00 | 0.00 | 55 | 1016.4 |
| 20260831151534 | 15 | 296 | 25.7 | 35.4 | 0.00 | 0.00 | 0.00 | 57 | 1016.2 |
| 20260831150043 | 14 | 295 | 25.7 | 37.0 | 0.00 | 0.00 | 0.00 | 58 | 1016.1 |
| 20260831144538 | 13 | 300 | 29.0 | 40.2 | 0.00 | 0.00 | 0.00 | 59 | 1015.8 |
| 20260831143038 | 13 | 281 | 24.1 | 40.2 | 0.00 | 0.00 | 0.00 | 62 | 1015.6 |
| 20260831141535 | 12 | 290 | 22.5 | 32.2 | 0.00 | 0.00 | 0.00 | 65 | 1015.5 |
| 20260831140038 | 11 | 276 | 17.7 | 29.0 | 0.00 | 0.00 | 0.00 | 67 | 1015.5 |
| 20260831134534 | 10 | 290 | 17.7 | 27.4 | 0.00 | 0.00 | 0.00 | 71 | 1015.2 |
| 20260831133035 | 9 | 270 | 16.1 | 25.7 | 0.00 | 0.00 | 0.00 | 73 | 1015.2 |
| 20260831131535 | 8 | 279 | 19.3 | 25.7 | 0.00 | 0.00 | 0.00 | 75 | 1014.9 |
| 20260831130107 | 7 | 284 | 12.9 | 17.7 | 0.00 | 0.00 | 0.00 | 78 | 1014.9 |
| 20260831124535 | 8 | 295 | 16.1 | 24.1 | 0.00 | 0.00 | 0.00 | 76 | 1014.7 |
| 20260831123033 | 8 | 290 | 14.5 | 20.9 | 0.00 | 0.00 | 0.00 | 76 | 1014.5 |
| 20260831121536 | 8 | 294 | 14.5 | 24.1 | 0.00 | 0.00 | 0.00 | 74 | 1014.5 |
| 20260831120040 | 9 | 276 | 17.7 | 27.4 | 0.00 | 0.00 | 0.00 | 72 | 1014.2 |
| 20260831114536 | 9 | 288 | 20.9 | 29.0 | 0.00 | 0.00 | 0.00 | 71 | 1014.1 |
| 20260831113038 | 9 | 266 | 17.7 | 27.4 | 0.00 | 0.00 | 0.00 | 71 | 1014.3 |
| 20260831111546 | 9 | 271 | 17.7 | 29.0 | 0.00 | 0.00 | 0.00 | 71 | 1014.2 |